RH
48 44 41 43 42 41 40 43 50 58 52 48 34 42 57 64 74 82 57 44 31 36 35 37 53 61 57 52 47 42 44 43 37 35 31 30 30 29 25 23 25 29 29 28 29
43 41 43 45 46 47 51 51 50 53 62 53 49 34 57 58 64 61 69 58 37 38 44 38 55 62 64 57 52 50 47 39 32 32 31 30 31 31 28 25 24 29 32 29 26
45 49 45 55 53 57 59 64 66 65 61 58 52 48 47 67 69 67 75 74 47 34 43 45 52 56 61 59 54 51 47 43 37 34 33 34 34 33 29 25 24 26 29 32 30
46 48 56 56 60 69 72 70 75 73 73 73 59 50 41 62 66 62 74 77 60 38 46 52 51 60 57 53 52 52 47 46 44 43 40 39 37 35 30 24 24 24 25 28 32
51 60 68 69 77 81 79 76 80 79 80 77 71 52 43 61 59 59 65 72 66 46 49 51 51 58 59 51 47 48 46 43 41 41 40 38 37 36 29 26 23 22 21 24 29
60 73 81 85 78 66 70 73 76 77 80 83 79 63 48 70 72 84 79 68 62 51 49 54 50 52 58 56 47 43 41 39 37 36 35 34 33 33 28 24 21 20 19 22 27
64 75 87 80 61 70 73 78 81 86 86 81 83 72 57 63 78 93 89 74 61 61 54 59 50 50 46 53 48 45 41 38 34 34 34 32 31 30 24 22 20 18 18 19 23
78 86 85 53 61 72 85 81 75 81 90 91 78 89 59 60 67 78 77 66 64 68 60 62 61 55 48 49 47 44 43 43 33 31 31 32 31 25 24 23 21 18 17 17 16
88 95 78 59 61 67 86 86 81 80 88 95 87 87 61 65 78 89 92 77 66 78 68 76 70 64 55 53 56 51 49 45 37 35 32 30 32 26 24 24 22 21 19 18 17
83 96 95 78 59 63 75 70 69 76 79 85 93 82 64 75 74 91 89 95 71 83 88 91 84 71 60 54 55 56 55 45 36 32 34 36 36 29 25 24 24 22 20 18 18
74 80 80 98 71 61 72 68 67 83 80 80 80 73 73 71 74 94 86 92 80 89 94 92 82 66 57 53 50 46 45 46 38 34 35 36 35 28 27 25 24 22 21 20 20
69 79 71 86 90 61 67 74 78 89 81 79 76 78 80 74 91 90 85 98 97 97 96 95 80 66 59 56 49 50 49 48 44 39 36 36 34 27 25 24 24 22 21 20 20
66 65 55 76 90 71 70 79 81 84 84 76 72 88 77 82 91 85 96 96 97 95 97 95 85 82 71 67 61 59 54 51 48 45 42 39 33 27 25 24 22 20 18 18 18
65 58 51 62 69 74 75 74 75 74 69 79 88 80 76 87 97 87 96 90 96 98 97 98 94 89 87 79 73 74 61 59 55 53 53 46 46 31 28 24 23 23 22 21 20
61 71 48 62 68 67 66 67 71 70 90 85 89 80 75 89 90 82 84 92 91 91 91 97 95 97 96 95 85 77 68 66 63 60 57 51 48 31 26 25 25 25 24 24 24
54 64 55 71 64 67 64 71 84 91 97 95 82 94 82 89 89 77 78 81 89 85 89 91 89 91 93 94 94 83 74 75 72 65 64 50 47 28 27 28 28 27 27 28 28
51 53 46 60 59 59 62 63 69 79 92 87 93 79 86 94 89 80 88 89 91 95 98 96 90 85 95 97 92 89 91 85 69 71 62 55 51 33 30 29 30 30 30 29 28
46 52 52 55 61 61 61 59 69 83 86 89 92 83 93 88 93 92 97 90 87 87 93 96 97 86 78 84 91 85 87 84 66 60 54 53 50 32 29 29 30 30 30 29 30
47 49 53 57 60 56 58 67 77 82 87 84 80 82 87 84 74 88 97 91 84 82 89 91 91 81 78 75 75 85 87 76 77 71 61 43 36 29 29 30 30 31 30 31 34
49 51 55 59 60 63 63 64 69 77 71 74 81 80 82 84 75 86 95 88 80 75 75 79 87 84 83 79 77 74 74 74 70 61 50 35 33 25 28 31 33 35 38 41 44
49 55 56 59 56 62 69 76 73 66 65 66 73 75 72 73 72 75 77 82 76 74 64 67 73 85 79 73 72 71 70 67 63 59 44 34 25 27 30 34 35 39 44 47 50
40 57 58 59 63 68 71 73 73 73 68 61 62 63 67 64 67 71 71 75 69 68 68 68 76 83 80 75 70 71 72 62 62 56 58 56 36 31 32 39 42 47 52 54 56
39 48 56 56 69 70 66 65 68 65 60 54 58 59 59 60 63 64 64 62 65 63 62 62 68 75 71 69 67 65 62 57 53 53 60 53 32 40 42 47 53 57 60 62 58
37 46 54 58 66 67 69 65 65 62 58 55 58 58 61 61 57 60 63 63 67 61 61 59 61 55 58 54 57 63 60 57 57 63 55 50 40 40 49 60 64 65 64 62 62
37 45 53 61 63 66 66 65 67 66 62 61 60 58 60 65 64 60 59 65 62 57 55 55 63 61 55 53 57 59 58 58 58 56 55 41 48 57 66 68 66 65 67 65 62
40 44 51 58 61 63 62 64 63 62 65 64 67 67 65 64 59 62 61 66 58 55 56 57 66 61 58 55 58 61 58 60 59 57 53 53 66 70 70 68 65 66 66 64 63
37 44 47 55 59 60 61 61 60 61 61 60 66 68 69 69 65 64 58 55 52 53 57 57 61 62 60 58 63 64 58 56 56 53 54 72 73 72 70 68 65 64 63 64 62